Regional Weather Roundup
Issued by NWS

Home | Current Version | Previous Version | Text Only | Print | Product List | Glossary Off
Versions: 1 2 3 4 5 6 7 8 9 10 11 12 13 14 15 16 17 18 19 20 21 22 23 24 25 26 27 28 29 30 31 32 33 34 35 36 37 38 39 40 41 42 43 44 45 46 47 48 49 50

069
ASUS43 KFSD 190902
RWRSD

WEATHER ROUNDUP FOR SOUTH DAKOTA
NATIONAL WEATHER SERVICE SIOUX FALLS SD
300 AM CST SUN NOV 19 2017

NOTE: "FAIR" INDICATES FEW OR NO CLOUDS BELOW 12,000 FEET WITH NO
SIGNIFICANT WEATHER AND/OR OBSTRUCTIONS TO VISIBILITY.


SDZ001>005-009-010-012>017-191000-
NORTHWEST AND NORTH CENTRAL SOUTH DAKOTA

CITY           SKY/WX    TMP DP  RH WIND       PRES   REMARKS
BUFFALO          N/A     27  18  69 W9        29.95F WCI  18
FAITH            N/A     29  22  75 SW12      30.04F WCI  19
MOBRIDGE       CLOUDY    21  17  84 SE6       30.03F WCI  13
$$

SDZ012>016-024>037-041>051-057-063-072>074-191000-
SOUTHWEST AND SOUTH CENTRAL SOUTH DAKOTA

CITY           SKY/WX    TMP DP  RH WIND       PRES   REMARKS
RAPID CTY ARPT CLOUDY    25  14  63 W5        30.09F WCI  19
PIERRE         CLOUDY    27  23  85 SW10      30.09F WCI  17
CUSTER         CLEAR     25  11  55 CALM      30.07F
ELLSWORTH AFB  CLOUDY    25  16  69 W8        30.07F WCI  16
PHILIP         CLOUDY    25  20  81 W5        30.11F WCI  19
PINE RIDGE     CLEAR     19  14  81 CALM      30.14S
SPEARFISH      FAIR      37  14  38 W10       30.05F
WINNER         FAIR      31  22  69 SW8       30.13F WCI  23
$$

SDZ004>011-016>023-039-040-191000-
NORTHEAST SOUTH DAKOTA

CITY           SKY/WX    TMP DP  RH WIND       PRES   REMARKS
ABERDEEN       CLEAR     11   9  92 SW5       30.08S WCI   3
WATERTOWN      CLEAR     18  14  84 SW9       30.05F WCI   7
BROOKINGS      CLEAR     20  16  84 SW7       30.10F WCI  11
SISSETON         N/A     22  15  75 CALM      30.04F
$$

SDZ017-020-022-023-036>040-048>070-191000-
SOUTHEAST SOUTH DAKOTA

CITY           SKY/WX    TMP DP  RH WIND       PRES   REMARKS
SIOUX FALLS    CLEAR     21  16  81 W6        30.14F WCI  13
HURON          CLOUDY    22  17  81 SW9       30.11F WCI  12
CHAMBERLAIN    CLOUDY    23  22  96 SW5       30.12F WCI  17
MITCHELL       CLOUDY    24  19  81 SW9       30.15F WCI  14
YANKTON        CLEAR     25  22  88 SW6       30.19S WCI  18
$$

ABBREVIATIONS USED IN REMARKS
   TC - TEMPERATURE IN CELSIUS
  WCI - WIND CHILL INDEX
   HX - HEAT INDEX
  VSB - VISIBILITY





USA.gov is the U.S. government's official web portal to all federal, state and local government web resources and services.